Аэропорт
Алматы (UAAA)

 UAAA / ALA
ЗЦ Центральная Азия
Алматы (UAAA)
Алматы (UAAA)
 43.35210, 77.04050  / 2234 ft

 UAAA 191130Z 00000MPS 9999 SCT050CB BKN100 27/08 Q1009 R88/CLRD65 NOSIG

UAAA charts
показать схемы
Название сценария Тип сценария Flight Simulator 9 Flight Simulator X Prepar3D v2 Prepar3D v3 Prepar3D v4 xPlane
Recommended scenery for FS9 бесплатный
Recommended scenery for FSX бесплатный


2019 © VATRUS division (Privacy Policy)